{"data":{"norad_id":60590,"intl_designator":"2024-150H","name":"STARLINK-32209","alt_names":[],"object_type":"PAYLOAD","status":"ACTIVE","operator":null,"country":"US","launch_date":"2024-08-20","launch_site_code":"AFETR","launch_vehicle":null,"mission":null,"orbit_class":"UNKNOWN","rcs_meters":null,"size_class":null,"mass_kg":null,"dimensions":null,"purposes":["comms"],"wikipedia_slug":null,"has_3d_model":false,"image_url":null,"decayed_at":null,"tle_current":{"epoch":"2026-09-21T21:11:54.901248Z","epoch_age_seconds":69392,"freshness":"FRESH","line1":"1 60590U 24150H   26264.88327432  .00000093  00000+0  13895-4 0  9990","line2":"2 60590  53.1603 111.1770 0001416  96.2350 263.8814 15.34388779118147","mean_motion":15.34388779,"eccentricity":0.0001416,"inclination_deg":53.1603,"raan_deg":111.177,"arg_perigee_deg":96.235,"mean_anomaly_deg":263.8814,"bstar":1.3895e-5,"rev_number":11814,"period_min":93.848444390898,"perigee_km":461.7679238865,"apogee_km":463.70525928764,"semimajor_km":6840.8735915871,"source":"CELESTRAK","updated_at":"2026-09-22T09:00:49.272364Z"}}}